This demonstration page uses our WeatherBlox Daily Observations layout. Learn more.

Left ArrowRight Arrow

Hourly Observations for March 26, 2021

Temp ( °F °C ) Dew Point ( °F °C ) Humidity (%) Winds ( mph kmh ) Pressure ( in mb ) Visibility ( mi km ) Precip ( " mm )
12:54 am 00:54 Clear 34 1.1 31 -0.6 89 89 Calm 29.91 1013 9 14 0.00 0.00
1:54 am 01:54 Clear 29 -1.7 26 -3.3 89 89 NNW 3 6 29.92 1013 8 13 0.00 0.00
2:54 am 02:54 Clear 29 -1.7 26 -3.3 89 89 NNE 3 6 29.92 1013 7 11 0.00 0.00
3:54 am 03:54 Clear 30 -1.1 27 -2.8 88 88 Calm 29.92 1013 8 13 0.00 0.00
4:54 am 04:54 Clear 28 -2.2 24 -4.4 85 85 Calm 29.93 1014 8 13 0.00 0.00
5:54 am 05:54 Clear 29 -1.7 26 -3.3 89 89 Calm 29.94 1014 8 13 0.00 0.00
6:54 am 06:54 Clear 32 0 28 -2.2 85 85 Calm 29.96 1015 8 13 0.00 0.00
7:54 am 07:54 Sunny 30 -1.1 27 -2.8 88 88 Calm 29.98 1015 7 11 0.00 0.00
8:54 am 08:54 Sunny 36 2.2 33 0.6 89 89 Calm 29.99 1016 7 11 0.00 0.00
9:54 am 09:54 Sunny 46 7.8 40 4.4 79 79 SSE 8 13 29.98 1015 10 16 0.00 0.00
10:54 am 10:54 Sunny 51 10.6 39 3.9 64 64 S 13 20 29.99 1016 10 16 0.00 0.00
11:54 am 11:54 Sunny 53 11.7 37 2.8 55 55 SSE 13 20 29.98 1015 10 16 0.00 0.00
12:54 pm 12:54 Partly Cloudy 54 12.2 38 3.3 55 55 SSE 14 22 29.98 1015 10 16 0.00 0.00
1:54 pm 13:54 Cloudy with Light Rain 51 10.6 40 4.4 66 66 S 15 24 29.97 1015 8 13 0.00 0.00
2:54 pm 14:54 Cloudy 54 12.2 41 5 62 62 ESE 13 20 29.94 1014 10 16 0.00 0.00
3:54 pm 15:54 Cloudy 55 12.8 40 4.4 57 57 E 14 22 29.90 1013 10 16 0.00 0.00
4:54 pm 16:54 Partly Cloudy 56 13.3 40 4.4 55 55 SE 16 26 29.89 1012 10 16 0.00 0.00
5:54 pm 17:54 Cloudy 55 12.8 40 4.4 57 57 ESE 12 19 29.91 1013 10 16 0.00 0.00
6:54 pm 18:54 Mostly Cloudy 54 12.2 40 4.4 59 59 E 15 24 29.89 1012 10 16 0.00 0.00
7:54 pm 19:54 Clear 53 11.7 40 4.4 61 61 E 10 17 29.89 1012 10 16 0.00 0.00
8:54 pm 20:54 Mostly Clear 52 11.1 40 4.4 64 64 E 8 13 29.88 1012 10 16 0.00 0.00
9:54 pm 21:54 Cloudy with Light Rain 51 10.6 42 5.6 71 71 ESE 18 30 29.88 1012 10 16 0.00 0.00
10:54 pm 22:54 Mostly Cloudy 50 10 42 5.6 74 74 ESE 10 17 29.85 1011 10 16 0.00 0.00
11:54 pm 23:54 Clear 49 9.4 43 6.1 80 80 WNW 6 9 29.88 1012 10 16 0.00 0.00

Powered by AerisWeather